Time,TemperatureF,DewpointF,PressureIn,WindDirection,WindDirectionDegrees,WindSpeedMPH,WindSpeedGustMPH,Humidity,HourlyPrecipIn,Conditions,Clouds,dailyrainin,SoftwareType,DateUTC
2013-01-05 00:22:00,29.0,25.0,30.40,NW,306,0.0,-999.0,86,-99.99,,,0.00,weatherlink.com 1.10,2013-01-05 05:22:00,
2013-01-05 00:38:00,28.9,26.0,30.41,NW,306,1.0,-999.0,87,-99.99,,,0.00,weatherlink.com 1.10,2013-01-05 05:38:00,
2013-01-05 00:53:00,28.9,26.0,30.40,NW,306,1.0,-999.0,87,-99.99,,,0.00,weatherlink.com 1.10,2013-01-05 05:53:00,
2013-01-05 01:08:00,29.0,26.0,30.39,NW,306,2.0,-999.0,87,-99.99,,,0.00,weatherlink.com 1.10,2013-01-05 06:08:00,
2013-01-05 01:23:00,28.9,26.0,30.39,WNW,300,2.0,-999.0,87,-99.99,,,0.00,weatherlink.com 1.10,2013-01-05 06:23:00,
2013-01-05 01:38:00,29.1,25.0,30.38,WNW,300,0.0,-999.0,86,-99.99,,,0.00,weatherlink.com 1.10,2013-01-05 06:38:00,
2013-01-05 01:53:00,29.0,25.0,30.37,NNE,31,0.0,-999.0,86,-99.99,,,0.00,weatherlink.com 1.10,2013-01-05 06:53:00,
2013-01-05 02:08:00,28.9,26.0,30.37,NNE,31,1.0,-999.0,87,-99.99,,,0.00,weatherlink.com 1.10,2013-01-05 07:08:00,
2013-01-05 02:23:00,28.9,26.0,30.37,NNE,31,0.0,-999.0,87,-99.99,,,0.00,weatherlink.com 1.10,2013-01-05 07:23:00,
2013-01-05 02:38:00,28.7,25.0,30.37,NNE,31,1.0,-999.0,87,-99.99,,,0.00,weatherlink.com 1.10,2013-01-05 07:38:00,
2013-01-05 02:53:00,28.3,25.0,30.38,NNE,31,0.0,-999.0,88,-99.99,,,0.00,weatherlink.com 1.10,2013-01-05 07:53:00,
2013-01-05 03:08:00,28.3,25.0,30.37,NNE,31,0.0,-999.0,88,-99.99,,,0.00,weatherlink.com 1.10,2013-01-05 08:08:00,
2013-01-05 03:23:00,28.8,25.0,30.37,NNW,327,0.0,-999.0,86,-99.99,,,0.00,weatherlink.com 1.10,2013-01-05 08:23:00,
2013-01-05 03:38:00,28.9,25.0,30.36,NNW,328,0.0,-999.0,86,-99.99,,,0.00,weatherlink.com 1.10,2013-01-05 08:38:00,
2013-01-05 03:53:00,28.7,25.0,30.36,NNW,328,2.0,-999.0,87,-99.99,,,0.00,weatherlink.com 1.10,2013-01-05 08:53:00,
2013-01-05 04:08:00,28.4,25.0,30.36,NNW,327,2.0,-999.0,88,-99.99,,,0.00,weatherlink.com 1.10,2013-01-05 09:08:00,
2013-01-05 04:23:00,28.2,25.0,30.37,West,276,2.0,-999.0,88,-99.99,,,0.00,weatherlink.com 1.10,2013-01-05 09:23:00,
2013-01-05 04:38:00,28.2,25.0,30.36,West,262,2.0,-999.0,88,-99.99,,,0.00,weatherlink.com 1.10,2013-01-05 09:38:00,
2013-01-05 04:53:00,28.8,25.0,30.36,WNW,297,0.0,-999.0,87,-99.99,,,0.00,weatherlink.com 1.10,2013-01-05 09:53:00,
2013-01-05 05:08:00,28.8,25.0,30.36,WNW,297,0.0,-999.0,87,-99.99,,,0.00,weatherlink.com 1.10,2013-01-05 10:08:00,
2013-01-05 05:23:00,28.7,25.0,30.37,WNW,297,0.0,-999.0,87,-99.99,,,0.00,weatherlink.com 1.10,2013-01-05 10:23:00,
2013-01-05 05:38:00,28.5,25.0,30.38,WNW,297,1.0,-999.0,88,-99.99,,,0.00,weatherlink.com 1.10,2013-01-05 10:38:00,
2013-01-05 05:53:00,28.2,25.0,30.38,WNW,297,0.0,-999.0,88,-99.99,,,0.00,weatherlink.com 1.10,2013-01-05 10:53:00,
2013-01-05 06:08:00,28.0,25.0,30.39,WNW,297,0.0,-999.0,88,-99.99,,,0.00,weatherlink.com 1.10,2013-01-05 11:08:00,
2013-01-05 06:23:00,27.9,25.0,30.40,WNW,297,1.0,-999.0,88,-99.99,,,0.00,weatherlink.com 1.10,2013-01-05 11:23:00,
2013-01-05 06:38:00,27.9,25.0,30.39,WNW,299,0.0,-999.0,88,-99.99,,,0.00,weatherlink.com 1.10,2013-01-05 11:38:00,
2013-01-05 06:53:00,27.9,25.0,30.39,WNW,299,0.0,-999.0,88,-99.99,,,0.00,weatherlink.com 1.10,2013-01-05 11:53:00,
2013-01-05 07:08:00,27.9,25.0,30.39,WNW,299,0.0,-999.0,88,-99.99,,,0.00,weatherlink.com 1.10,2013-01-05 12:08:00,
2013-01-05 07:23:00,27.7,25.0,30.39,WNW,299,0.0,-999.0,88,-99.99,,,0.00,weatherlink.com 1.10,2013-01-05 12:23:00,
2013-01-05 07:38:00,27.6,25.0,30.39,WNW,299,0.0,-999.0,88,-99.99,,,0.00,weatherlink.com 1.10,2013-01-05 12:38:00,
2013-01-05 07:53:00,27.6,25.0,30.39,WNW,299,0.0,-999.0,89,-99.99,,,0.00,weatherlink.com 1.10,2013-01-05 12:53:00,
2013-01-05 08:08:00,27.7,25.0,30.40,WNW,299,0.0,-999.0,89,-99.99,,,0.00,weatherlink.com 1.10,2013-01-05 13:08:00,
2013-01-05 08:23:00,27.9,25.0,30.40,WNW,299,0.0,-999.0,89,-99.99,,,0.00,weatherlink.com 1.10,2013-01-05 13:23:00,
2013-01-05 08:38:00,28.3,26.0,30.41,WNW,299,0.0,-999.0,90,-99.99,,,0.00,weatherlink.com 1.10,2013-01-05 13:38:00,
2013-01-05 08:53:00,29.0,26.0,30.41,WNW,299,0.0,-999.0,89,-99.99,,,0.00,weatherlink.com 1.10,2013-01-05 13:53:00,
2013-01-05 09:08:00,29.9,27.0,30.41,WNW,299,0.0,-999.0,88,-99.99,,,0.00,weatherlink.com 1.10,2013-01-05 14:08:00,
2013-01-05 09:23:00,32.0,27.0,30.41,WNW,299,0.0,-999.0,83,-99.99,,,0.00,weatherlink.com 1.10,2013-01-05 14:23:00,
2013-01-05 09:38:00,33.1,28.0,30.40,WNW,299,1.0,-999.0,82,-99.99,,,0.00,weatherlink.com 1.10,2013-01-05 14:38:00,
2013-01-05 09:53:00,34.1,28.0,30.42,WNW,299,1.0,-999.0,78,-99.99,,,0.00,weatherlink.com 1.10,2013-01-05 14:53:00,
2013-01-05 10:09:00,34.9,28.0,30.42,WNW,299,0.0,-999.0,77,-99.99,,,0.00,weatherlink.com 1.10,2013-01-05 15:09:00,
2013-01-05 10:24:00,36.5,29.0,30.43,NE,46,0.0,-999.0,73,-99.99,,,0.00,weatherlink.com 1.10,2013-01-05 15:24:00,
2013-01-05 10:39:00,37.3,29.0,30.41,NE,46,1.0,-999.0,71,-99.99,,,0.00,weatherlink.com 1.10,2013-01-05 15:39:00,
2013-01-05 10:54:00,38.5,28.0,30.42,NE,46,2.0,-999.0,67,-99.99,,,0.00,weatherlink.com 1.10,2013-01-05 15:54:00,
2013-01-05 11:09:00,39.4,29.0,30.42,NE,52,1.0,-999.0,67,-99.99,,,0.00,weatherlink.com 1.10,2013-01-05 16:09:00,
2013-01-05 11:24:00,40.4,29.0,30.41,NE,55,0.0,-999.0,64,-99.99,,,0.00,weatherlink.com 1.10,2013-01-05 16:24:00,
2013-01-05 11:39:00,41.3,29.0,30.41,NE,55,4.0,-999.0,63,-99.99,,,0.00,weatherlink.com 1.10,2013-01-05 16:39:00,
2013-01-05 11:54:00,41.9,30.0,30.41,NE,54,0.0,-999.0,62,-99.99,,,0.00,weatherlink.com 1.10,2013-01-05 16:54:00,
2013-01-05 12:09:00,42.7,29.0,30.39,East,95,0.0,-999.0,59,-99.99,,,0.00,weatherlink.com 1.10,2013-01-05 17:09:00,
2013-01-05 12:24:00,43.3,29.0,30.39,SSW,197,0.0,-999.0,57,-99.99,,,0.00,weatherlink.com 1.10,2013-01-05 17:24:00,
2013-01-05 12:39:00,43.6,28.0,30.37,South,191,1.0,-999.0,55,-99.99,,,0.00,weatherlink.com 1.10,2013-01-05 17:39:00,
2013-01-05 12:54:00,44.5,29.0,30.36,South,189,0.0,-999.0,54,-99.99,,,0.00,weatherlink.com 1.10,2013-01-05 17:54:00,
2013-01-05 13:09:00,44.7,29.0,30.36,South,171,1.0,-999.0,54,-99.99,,,0.00,weatherlink.com 1.10,2013-01-05 18:09:00,
2013-01-05 13:24:00,45.4,29.0,30.36,SSE,149,1.0,-999.0,53,-99.99,,,0.00,weatherlink.com 1.10,2013-01-05 18:24:00,
2013-01-05 13:39:00,45.7,28.0,30.34,SSE,153,2.0,-999.0,51,-99.99,,,0.00,weatherlink.com 1.10,2013-01-05 18:39:00,
2013-01-05 13:54:00,46.2,28.0,30.33,SSW,209,2.0,-999.0,50,-99.99,,,0.00,weatherlink.com 1.10,2013-01-05 18:54:00,
2013-01-05 14:09:00,46.4,28.0,30.32,SSE,153,0.0,-999.0,50,-99.99,,,0.00,weatherlink.com 1.10,2013-01-05 19:09:00,
2013-01-05 14:24:00,46.5,28.0,30.32,SSE,153,0.0,-999.0,49,-99.99,,,0.00,weatherlink.com 1.10,2013-01-05 19:24:00,
2013-01-05 14:39:00,46.7,29.0,30.32,SSW,204,2.0,-999.0,51,-99.99,,,0.00,weatherlink.com 1.10,2013-01-05 19:39:00,
2013-01-05 14:54:00,46.9,28.0,30.32,SSW,208,0.0,-999.0,49,-99.99,,,0.00,weatherlink.com 1.10,2013-01-05 19:54:00,
2013-01-05 15:09:00,47.1,29.0,30.31,South,171,0.0,-999.0,49,-99.99,,,0.00,weatherlink.com 1.10,2013-01-05 20:09:00,
2013-01-05 15:24:00,47.4,28.0,30.31,South,171,0.0,-999.0,48,-99.99,,,0.00,weatherlink.com 1.10,2013-01-05 20:24:00,
2013-01-05 15:39:00,47.6,29.0,30.32,South,171,0.0,-999.0,48,-99.99,,,0.00,weatherlink.com 1.10,2013-01-05 20:39:00,
2013-01-05 15:54:00,47.6,28.0,30.31,South,171,1.0,-999.0,47,-99.99,,,0.00,weatherlink.com 1.10,2013-01-05 20:54:00,
2013-01-05 16:09:00,47.6,29.0,30.32,South,171,0.0,-999.0,49,-99.99,,,0.00,weatherlink.com 1.10,2013-01-05 21:09:00,
2013-01-05 16:24:00,47.7,29.0,30.32,South,171,0.0,-999.0,49,-99.99,,,0.00,weatherlink.com 1.10,2013-01-05 21:24:00,
2013-01-05 16:39:00,47.5,29.0,30.31,South,171,0.0,-999.0,49,-99.99,,,0.00,weatherlink.com 1.10,2013-01-05 21:39:00,
2013-01-05 16:54:00,47.4,29.0,30.31,South,171,0.0,-999.0,49,-99.99,,,0.00,weatherlink.com 1.10,2013-01-05 21:54:00,
2013-01-05 17:09:00,47.2,30.0,30.32,South,171,0.0,-999.0,51,-99.99,,,0.00,weatherlink.com 1.10,2013-01-05 22:09:00,
2013-01-05 17:24:00,46.8,29.0,30.32,South,171,0.0,-999.0,51,-99.99,,,0.00,weatherlink.com 1.10,2013-01-05 22:24:00,
2013-01-05 17:39:00,46.5,30.0,30.32,South,171,0.0,-999.0,53,-99.99,,,0.00,weatherlink.com 1.10,2013-01-05 22:39:00,
2013-01-05 17:54:00,46.0,30.0,30.32,South,171,0.0,-999.0,54,-99.99,,,0.00,weatherlink.com 1.10,2013-01-05 22:54:00,
2013-01-05 18:09:00,45.5,30.0,30.32,South,171,0.0,-999.0,55,-99.99,,,0.00,weatherlink.com 1.10,2013-01-05 23:09:00,
2013-01-05 18:24:00,45.1,30.0,30.33,South,171,0.0,-999.0,55,-99.99,,,0.00,weatherlink.com 1.10,2013-01-05 23:24:00,
2013-01-05 18:39:00,45.1,32.0,30.34,South,171,0.0,-999.0,60,-99.99,,,0.00,weatherlink.com 1.10,2013-01-05 23:39:00,
2013-01-05 18:54:00,44.9,31.0,30.36,SSW,204,2.0,-999.0,58,-99.99,,,0.00,weatherlink.com 1.10,2013-01-05 23:54:00,
2013-01-05 19:09:00,44.9,32.0,30.38,West,265,2.0,-999.0,60,-99.99,,,0.00,weatherlink.com 1.10,2013-01-06 00:09:00,
2013-01-05 19:25:00,44.8,32.0,30.38,WSW,251,0.0,-999.0,62,-99.99,,,0.00,weatherlink.com 1.10,2013-01-06 00:25:00,
2013-01-05 19:40:00,44.4,35.0,30.37,WSW,251,0.0,-999.0,70,-99.99,,,0.01,weatherlink.com 1.10,2013-01-06 00:40:00,
2013-01-05 19:55:00,43.3,37.0,30.36,WSW,251,1.0,-999.0,78,-99.99,,,0.01,weatherlink.com 1.10,2013-01-06 00:55:00,
2013-01-05 20:10:00,42.3,37.0,30.35,WSW,251,0.0,-999.0,81,-99.99,,,0.01,weatherlink.com 1.10,2013-01-06 01:10:00,
2013-01-05 20:25:00,41.8,37.0,30.35,WSW,251,0.0,-999.0,83,-99.99,,,0.01,weatherlink.com 1.10,2013-01-06 01:25:00,
2013-01-05 20:40:00,41.7,38.0,30.34,WSW,251,0.0,-999.0,86,-99.99,,,0.01,weatherlink.com 1.10,2013-01-06 01:40:00,
2013-01-05 20:55:00,41.6,38.0,30.34,WSW,251,0.0,-999.0,88,-99.99,,,0.01,weatherlink.com 1.10,2013-01-06 01:55:00,
2013-01-05 21:10:00,41.3,39.0,30.33,WSW,251,0.0,-999.0,90,-99.99,,,0.01,weatherlink.com 1.10,2013-01-06 02:10:00,
2013-01-05 21:25:00,41.3,39.0,30.32,WSW,251,0.0,-999.0,91,-99.99,,,0.02,weatherlink.com 1.10,2013-01-06 02:25:00,
2013-01-05 21:40:00,41.0,39.0,30.31,WSW,251,0.0,-999.0,91,-99.99,,,0.02,weatherlink.com 1.10,2013-01-06 02:40:00,
2013-01-05 21:55:00,41.0,39.0,30.30,WSW,251,0.0,-999.0,92,-99.99,,,0.02,weatherlink.com 1.10,2013-01-06 02:55:00,
2013-01-05 22:10:00,41.0,39.0,30.31,WSW,251,0.0,-999.0,92,-99.99,,,0.02,weatherlink.com 1.10,2013-01-06 03:10:00,
2013-01-05 22:25:00,41.1,39.0,30.30,WSW,251,0.0,-999.0,93,-99.99,,,0.02,weatherlink.com 1.10,2013-01-06 03:25:00,
2013-01-05 22:40:00,41.0,39.0,30.30,WSW,251,1.0,-999.0,93,-99.99,,,0.02,weatherlink.com 1.10,2013-01-06 03:40:00,
2013-01-05 22:55:00,41.1,39.0,30.31,WSW,251,0.0,-999.0,93,-99.99,,,0.02,weatherlink.com 1.10,2013-01-06 03:55:00,
2013-01-05 23:10:00,41.1,39.0,30.32,WSW,251,0.0,-999.0,93,-99.99,,,0.02,weatherlink.com 1.10,2013-01-06 04:10:00,
2013-01-05 23:25:00,40.9,39.0,30.32,WSW,251,0.0,-999.0,93,-99.99,,,0.03,weatherlink.com 1.10,2013-01-06 04:25:00,
2013-01-05 23:40:00,40.8,39.0,30.33,WSW,251,0.0,-999.0,93,-99.99,,,0.03,weatherlink.com 1.10,2013-01-06 04:40:00,
2013-01-05 23:55:00,40.7,39.0,30.32,WSW,251,0.0,-999.0,93,-99.99,,,0.00,weatherlink.com 1.10,2013-01-06 04:55:00,